• In Belarus
  • List of Countries
  • For 7 days
  • Water Temperature
  • Satellite Maps
  • Weather Map
  • Weather Widgets
  • user-avatar
    Login

    Hourly Weather Ali Bayramli

    Today, 18 August, Friday

    Time Temperature Precipitation Wind Pressure Humidity
    00:00 +30°C° 0 mm 4 mps 756 mmHg 42%
    01:00 +29°C° 0 mm 4 mps 756 mmHg 43%
    02:00 +29°C° 0 mm 3 mps 756 mmHg 43%
    03:00 +28°C° 0 mm 3 mps 755 mmHg 43%
    04:00 +28°C° 0 mm 3 mps 755 mmHg 42%
    05:00 +29°C° 0 mm 3 mps 756 mmHg 40%
    06:00 +29°C° 0 mm 3 mps 756 mmHg 39%
    07:00 +30°C° 0 mm 3 mps 756 mmHg 35%
    08:00 +33°C° 0 mm 4 mps 756 mmHg 32%
    09:00 +35°C° 0 mm 4 mps 756 mmHg 28%
    10:00 +36°C° 0 mm 4 mps 756 mmHg 28%
    11:00 +37°C° 0 mm 5 mps 756 mmHg 27%
    12:00 +39°C° 0 mm 5 mps 756 mmHg 26%
    13:00 +39°C° 0 mm 6 mps 756 mmHg 25%
    14:00 +39°C° 0 mm 7 mps 756 mmHg 24%
    15:00 +39°C° 0 mm 7 mps 756 mmHg 23%
    16:00 +38°C° 0 mm 7 mps 756 mmHg 23%
    17:00 +36°C° 0 mm 7 mps 756 mmHg 23%
    18:00 +35°C° 0 mm 7 mps 757 mmHg 23%
    19:00 +34°C° 0 mm 7 mps 757 mmHg 28%
    20:00 +32°C° 0 mm 7 mps 757 mmHg 32%
    21:00 +30°C° 0 mm 7 mps 758 mmHg 37%
    22:00 +30°C° 0 mm 6 mps 758 mmHg 37%
    23:00 +30°C° 0 mm 5 mps 758 mmHg 38%

    Tomorrow, 19 August, Saturday

    Time Temperature Precipitation Wind Pressure Humidity
    00:00 +29°C° 0 mm 5 mps 758 mmHg 39%
    01:00 +29°C° 0 mm 5 mps 758 mmHg 38%
    02:00 +28°C° 0 mm 4 mps 758 mmHg 38%
    03:00 +28°C° 0 mm 4 mps 758 mmHg 37%
    04:00 +28°C° 0 mm 4 mps 758 mmHg 37%
    05:00 +28°C° 0 mm 4 mps 758 mmHg 36%
    06:00 +28°C° 0 mm 4 mps 758 mmHg 36%
    07:00 +30°C° 0 mm 4 mps 758 mmHg 32%
    08:00 +33°C° 0 mm 4 mps 759 mmHg 28%
    09:00 +35°C° 0 mm 4 mps 759 mmHg 25%
    10:00 +36°C° 0 mm 4 mps 759 mmHg 22%
    11:00 +37°C° 0 mm 5 mps 759 mmHg 20%
    12:00 +39°C° 0 mm 5 mps 759 mmHg 17%
    13:00 +39°C° 0 mm 6 mps 759 mmHg 17%
    14:00 +39°C° 0 mm 6 mps 758 mmHg 16%
    15:00 +39°C° 0 mm 7 mps 758 mmHg 16%
    16:00 +38°C° 0 mm 7 mps 758 mmHg 17%
    17:00 +36°C° 0 mm 6 mps 759 mmHg 18%
    18:00 +35°C° 0 mm 6 mps 759 mmHg 20%
    19:00 +34°C° 0 mm 5 mps 759 mmHg 24%
    20:00 +32°C° 0 mm 4 mps 759 mmHg 28%
    21:00 +30°C° 0 mm 3 mps 760 mmHg 32%
    22:00 +30°C° 0 mm 3 mps 760 mmHg 34%
    23:00 +29°C° 0 mm 3 mps 760 mmHg 36%

    Day after tomorrow, 20 August, Sunday

    Time Temperature Precipitation Wind Pressure Humidity
    00:00 +29°C° 0 mm 3 mps 759 mmHg 38%
    01:00 +28°C° 0 mm 2 mps 759 mmHg 39%
    02:00 +28°C° 0 mm 2 mps 759 mmHg 39%
    03:00 +27°C° 0 mm 2 mps 759 mmHg 40%
    04:00 +28°C° 0 mm 1 mps 759 mmHg 39%
    05:00 +28°C° 0 mm 1 mps 759 mmHg 39%
    06:00 +28°C° 0 mm 1 mps 759 mmHg 38%
    07:00 +30°C° 0 mm 1 mps 759 mmHg 33%
    08:00 +32°C° 0 mm 1 mps 759 mmHg 29%
    09:00 +34°C° 0 mm 1 mps 759 mmHg 24%
    10:00 +36°C° 0 mm 2 mps 759 mmHg 22%
    11:00 +37°C° 0 mm 3 mps 759 mmHg 20%
    12:00 +38°C° 0 mm 4 mps 758 mmHg 19%
    13:00 +40°C° 0 mm 5 mps 758 mmHg 20%
    14:00 +40°C° 0 mm 6 mps 758 mmHg 21%
    15:00 +40°C° 0 mm 7 mps 757 mmHg 22%
    16:00 +38°C° 0 mm 7 mps 757 mmHg 25%
    17:00 +36°C° 0 mm 6 mps 758 mmHg 29%
    18:00 +34°C° 0 mm 6 mps 758 mmHg 32%
    19:00 +33°C° 0 mm 5 mps 758 mmHg 36%
    20:00 +32°C° 0 mm 4 mps 758 mmHg 39%
    21:00 +30°C° 0 mm 3 mps 758 mmHg 43%
    22:00 +30°C° 0 mm 3 mps 758 mmHg 43%
    23:00 +29°C° 0 mm 3 mps 758 mmHg 42%

    21 August, Monday

    Time Temperature Precipitation Wind Pressure Humidity
    00:00 +29°C° 0 mm 2 mps 758 mmHg 42%
    01:00 +29°C° 0 mm 2 mps 758 mmHg 42%
    02:00 +28°C° 0 mm 2 mps 757 mmHg 41%
    03:00 +28°C° 0 mm 1 mps 757 mmHg 41%
    04:00 +28°C° 0 mm 1 mps 757 mmHg 40%
    05:00 +28°C° 0 mm 2 mps 758 mmHg 40%
    06:00 +28°C° 0 mm 2 mps 758 mmHg 39%
    07:00 +30°C° 0 mm 2 mps 758 mmHg 35%
    08:00 +32°C° 0 mm 2 mps 758 mmHg 32%
    09:00 +35°C° 0 mm 2 mps 758 mmHg 28%
    10:00 +36°C° 0 mm 3 mps 758 mmHg 27%
    11:00 +37°C° 0 mm 3 mps 757 mmHg 25%
    12:00 +38°C° 0 mm 4 mps 757 mmHg 23%
    13:00 +40°C° 0 mm 5 mps 757 mmHg 23%
    14:00 +40°C° 0 mm 6 mps 756 mmHg 22%
    15:00 +40°C° 0 mm 7 mps 756 mmHg 21%
    16:00 +39°C° 0 mm 6 mps 756 mmHg 23%
    17:00 +36°C° 0 mm 6 mps 756 mmHg 25%
    18:00 +35°C° 0 mm 6 mps 756 mmHg 27%
    19:00 +34°C° 0 mm 5 mps 756 mmHg 31%
    20:00 +33°C° 0 mm 4 mps 757 mmHg 35%
    21:00 +30°C° 0 mm 3 mps 757 mmHg 39%
    22:00 +30°C° 0 mm 3 mps 757 mmHg 40%
    23:00 +29°C° 0 mm 3 mps 756 mmHg 40%

    22 August, Tuesday

    Time Temperature Precipitation Wind Pressure Humidity
    00:00 +29°C° 0 mm 2 mps 756 mmHg 41%
    01:00 +28°C° 0 mm 2 mps 756 mmHg 42%
    02:00 +28°C° 0 mm 2 mps 756 mmHg 42%
    03:00 +27°C° 0 mm 1 mps 756 mmHg 42%
    04:00 +28°C° 0 mm 1 mps 756 mmHg 41%
    05:00 +28°C° 0 mm 1 mps 756 mmHg 39%
    06:00 +28°C° 0 mm 1 mps 756 mmHg 38%
    07:00 +30°C° 0 mm 1 mps 756 mmHg 33%
    08:00 +32°C° 0 mm 1 mps 756 mmHg 28%
    09:00 +34°C° 0 mm 1 mps 756 mmHg 23%
    10:00 +36°C° 0 mm 2 mps 756 mmHg 21%
    11:00 +37°C° 0 mm 2 mps 756 mmHg 19%
    12:00 +39°C° 0 mm 3 mps 755 mmHg 17%
    13:00 +40°C° 0 mm 4 mps 755 mmHg 19%
    14:00 +40°C° 0 mm 5 mps 755 mmHg 20%
    15:00 +40°C° 0 mm 6 mps 754 mmHg 22%
    16:00 +39°C° 0 mm 6 mps 754 mmHg 27%
    17:00 +36°C° 0 mm 6 mps 755 mmHg 31%
    18:00 +34°C° 0 mm 6 mps 755 mmHg 36%
    19:00 +33°C° 0 mm 5 mps 755 mmHg 40%
    20:00 +32°C° 0 mm 5 mps 755 mmHg 44%
    21:00 +30°C° 0 mm 4 mps 756 mmHg 47%
    22:00 +30°C° 0 mm 3 mps 756 mmHg 48%
    23:00 +29°C° 0 mm 3 mps 756 mmHg 48%

    23 August, Wednesday

    Time Temperature Precipitation Wind Pressure Humidity
    00:00 +29°C° 0 mm 3 mps 755 mmHg 48%
    01:00 +29°C° 0 mm 3 mps 755 mmHg 47%
    02:00 +28°C° 0 mm 2 mps 755 mmHg 46%
    03:00 +28°C° 0 mm 2 mps 755 mmHg 45%
    04:00 +28°C° 0 mm 2 mps 756 mmHg 45%
    05:00 +28°C° 0 mm 1 mps 756 mmHg 45%
    06:00 +28°C° 0 mm 1 mps 756 mmHg 44%
    07:00 +30°C° 0 mm 2 mps 756 mmHg 40%
    08:00 +32°C° 0 mm 2 mps 757 mmHg 36%
    09:00 +35°C° 0 mm 2 mps 757 mmHg 31%
    10:00 +36°C° 0 mm 4 mps 757 mmHg 29%
    11:00 +37°C° 0 mm 5 mps 757 mmHg 26%
    12:00 +40°C° 0 mm 6 mps 756 mmHg 24%
    13:00 +39°C° 0 mm 7 mps 756 mmHg 24%
    14:00 +39°C° 0 mm 7 mps 756 mmHg 24%
    15:00 +39°C° 0 mm 8 mps 756 mmHg 25%
    16:00 +36°C° 0 mm 7 mps 756 mmHg 27%
    17:00 +35°C° 0 mm 7 mps 756 mmHg 29%
    18:00 +34°C° 0 mm 7 mps 756 mmHg 31%
    19:00 +33°C° 0 mm 5 mps 757 mmHg 35%
    20:00 +32°C° 0 mm 4 mps 757 mmHg 40%
    21:00 +30°C° 0 mm 3 mps 757 mmHg 44%
    22:00 +29°C° 0 mm 3 mps 757 mmHg 45%
    23:00 +29°C° 0 mm 3 mps 757 mmHg 45%
    Show more